Lincoln, NE

11:39 AM CST on December 05, 2019 (GMT -0600)
Lincoln Municipal

Weather History for KLNK - November, 2019

Change the Weather History Date:

Thursday, November 21, 2019

  Actual Average Record
Temperature  
Mean Temperature 38 °F 36 °F  
Max Temperature 46 °F 47 °F 73 °F (2012)
Min Temperature 30 °F 25 °F 3 °F (1985)
Degree Days  
Heating Degree Days 27 29  
Month to date heating degree days 555 497  
Since 1 July heating degree days 1066 976  
Cooling Degree Days 0 0  
Month to date cooling degree days 0 0  
Year to date cooling degree days 1332 1173  
Moisture  
Dew Point 29 °F    
Average Humidity 79    
Maximum Humidity 89    
Minimum Humidity 69    
Precipitation  
Precipitation T in 0.05 in 0.79 in (1898)
Month to date precipitation 0.39 1.06  
Year to date precipitation 33.14 27.63  
Snow  
Snow 0.00 in 0.10 in 1.00 in (1953)
Month to date snowfall 0.5 1.1  
Since 1 July snowfall 1.2 1.8  
Since 1 September snowfall 1.2 1.8  
Snow Depth 0.00 in    
Sea Level Pressure  
Sea Level Pressure 30.10 in    
Wind  
Wind Speed 19 mph (NNW)    
Max Wind Speed 29 mph    
Max Gust Speed 39 mph    
Visibility 10 miles    
Events      
T = Trace of Precipitation, MM = Missing Value Source: NWS Daily Summary

Daily Weather History Graph

Daily Weather History Graph

Search for Another Location

Airport or City:

Astronomy

Nov. 21, 2019 Rise Set
Actual Time 7:20 AM CST 5:04 PM CST
Civil Twilight 6:51 AM CST 5:34 PM CST
Nautical Twilight 6:17 AM CST 6:07 PM CST
Astronomical Twilight 5:44 AM CST 6:40 PM CST
Moon 1:15 AM CST (11/21) 2:36 PM CST (11/21)
Length of Visible Light 10h 43m
Length of Day
9h 43m
Waning Crescent, 29% of the Moon is Illuminated
Nov 21
Waning Crescent
Nov 26
New
Dec 4
First Quarter
Dec 11
Full
Dec 18
Last Quarter

Hourly Weather History & Observations

Time (CST) Temp. Windchill Dew Point Humidity Pressure Visibility Wind Dir Wind Speed Gust Speed Precip Events Conditions
12:54 AM 44.1 °F 35.9 °F 39.9 °F 85% 29.75 in 10.0 mi NW 19.6 mph 27.6 mph 0.00 in   Overcast
1:21 AM 44.1 °F 36.5 °F 39.0 °F 82% 29.77 in 10.0 mi WNW 17.3 mph 27.6 mph N/A   Overcast
1:54 AM 43.0 °F 34.5 °F 39.0 °F 86% 29.78 in 10.0 mi NW 19.6 mph 31.1 mph N/A   Overcast
2:33 AM 43.0 °F 35.1 °F 39.0 °F 86% 29.79 in 10.0 mi NW 17.3 mph 28.8 mph N/A   Overcast
3:08 AM 43.0 °F 35.7 °F 37.9 °F 82% 29.82 in 10.0 mi NW 15.0 mph 27.6 mph N/A   Overcast
3:54 AM 42.1 °F 32.8 °F 36.0 °F 79% 29.85 in 10.0 mi NW 21.9 mph 32.2 mph N/A   Overcast
4:54 AM 41.0 °F 31.4 °F 35.1 °F 79% 29.91 in 10.0 mi NW 21.9 mph 34.5 mph N/A   Overcast
5:54 AM 39.9 °F 30.5 °F 34.0 °F 79% 29.98 in 10.0 mi NNW 19.6 mph 35.7 mph N/A   Overcast
6:54 AM 39.0 °F 27.8 °F 32.0 °F 76% 30.00 in 10.0 mi NNW 26.5 mph 34.5 mph N/A   Overcast
7:29 AM 39.0 °F 28.8 °F 30.9 °F 73% 30.01 in 10.0 mi NNW 21.9 mph 34.5 mph N/A   Overcast
7:54 AM 37.9 °F 26.8 °F 30.9 °F 76% 30.03 in 10.0 mi North 24.2 mph 35.7 mph N/A   Overcast
8:54 AM 37.9 °F 26.1 °F 30.9 °F 76% 30.05 in 10.0 mi NNW 27.6 mph 35.7 mph N/A   Overcast
9:54 AM 37.9 °F 27.9 °F 30.9 °F 76% 30.09 in 10.0 mi North 19.6 mph 31.1 mph N/A   Overcast
10:54 AM 37.9 °F 27.6 °F 28.9 °F 70% 30.13 in 10.0 mi NNW 20.7 mph 28.8 mph N/A   Overcast
11:46 AM 37.9 °F 29.2 °F 28.9 °F 70% 30.13 in 10.0 mi NNW 15.0 mph - N/A   Overcast
11:54 AM 37.0 °F 27.0 °F 28.9 °F 73% 30.15 in 10.0 mi NNW 18.4 mph 27.6 mph N/A   Overcast
12:54 PM 37.0 °F 27.0 °F 28.0 °F 70% 30.17 in 10.0 mi NNW 18.4 mph - N/A   Overcast
1:34 PM 37.0 °F 27.4 °F 28.0 °F 70% 30.16 in 10.0 mi NW 17.3 mph 26.5 mph N/A   Overcast
2:25 PM 37.0 °F 27.4 °F 28.0 °F 70% 30.16 in 10.0 mi NNW 17.3 mph 26.5 mph N/A   Overcast
2:54 PM 37.0 °F 27.0 °F 28.0 °F 70% 30.18 in 10.0 mi NNW 18.4 mph - N/A   Overcast
3:07 PM 37.0 °F 27.4 °F 28.0 °F 70% 30.16 in 10.0 mi NNW 17.3 mph - N/A   Overcast
3:54 PM 36.0 °F 25.0 °F 27.0 °F 70% 30.20 in 10.0 mi North 20.7 mph - N/A   Overcast
4:54 PM 35.1 °F 24.5 °F 26.1 °F 70% 30.22 in 10.0 mi NNW 18.4 mph - N/A   Overcast
5:13 PM 34.0 °F 23.0 °F 26.1 °F 73% 30.20 in 10.0 mi NNW 18.4 mph - N/A   Overcast
5:40 PM 34.0 °F 23.8 °F 26.1 °F 73% 30.20 in 10.0 mi North 16.1 mph - N/A   Overcast
5:54 PM 34.0 °F 23.0 °F 25.0 °F 70% 30.23 in 10.0 mi NNW 18.4 mph - N/A   Overcast
6:31 PM 33.1 °F 22.2 °F 25.0 °F 72% 30.21 in 10.0 mi NNW 17.3 mph - N/A   Overcast
6:54 PM 33.1 °F 22.2 °F 25.0 °F 72% 30.25 in 10.0 mi North 17.3 mph - N/A   Overcast
7:54 PM 32.0 °F 19.8 °F 24.1 °F 73% 30.27 in 10.0 mi North 20.7 mph 28.8 mph N/A   Overcast
8:54 PM 30.9 °F 19.8 °F 23.0 °F 72% 30.28 in 10.0 mi North 16.1 mph 24.2 mph N/A   Overcast
9:18 PM 30.0 °F 20.0 °F 23.0 °F 75% 30.25 in 10.0 mi North 12.7 mph - N/A   Scattered Clouds
9:54 PM 30.0 °F 22.4 °F 21.9 °F 72% 30.31 in 10.0 mi North 8.1 mph - N/A   Clear
10:54 PM 30.0 °F 22.4 °F 21.9 °F 72% 30.32 in 10.0 mi North 8.1 mph - N/A   Overcast